SCP
1 1 0 0 0 0 0 0 0 0 0 0 0 0 0 0 0 0 0 1 1 1 1 1 1 1 1 1 0 0 0 0 0 0 0 0 1 1 1 1 1 1 1 1 1 0 0 0 0
1 1 0 0 0 0 0 0 0 0 0 0 0 0 0 0 0 0 0 1 1 1 1 0 0 0 1 0 0 0 0 0 0 0 0 0 0 0 0 0 1 1 1 1 1 0 0 0 0
1 0 0 0 0 0 0 0 0 0 0 0 0 0 0 0 0 0 0 1 1 1 0 0 0 0 0 0 0 0 0 0 0 0 0 0 0 0 0 0 0 0 1 1 1 0 0 0 0
1 0 0 0 0 0 0 0 0 0 0 0 0 0 0 0 0 0 0 0 0 0 0 0 0 0 0 0 0 0 0 0 0 0 0 0 0 0 0 0 0 0 0 0 0 0 0 0 0
0 0 0 0 0 0 0 0 0 0 0 0 0 0 0 0 0 0 0 0 0 0 0 0 1 1 0 0 0 0 0 0 0 0 0 0 0 0 0 0 0 0 0 0 0 0 0 0 0
0 0 0 0 0 0 0 0 0 0 0 0 0 0 0 0 0 0 0 0 0 0 0 1 1 1 0 0 0 0 0 0 0 0 0 0 0 0 0 0 0 0 0 0 0 0 0 0 0
0 0 0 0 0 0 0 0 0 0 0 0 0 0 0 0 0 0 0 0 0 0 1 1 1 1 0 0 0 0 0 0 0 0 0 0 0 0 0 0 0 0 0 0 0 0 0 0 0
0 0 0 0 0 0 0 0 0 0 0 1 0 0 0 0 0 0 0 0 0 0 1 1 1 1 0 0 0 0 0 0 0 0 0 0 0 0 0 0 0 0 0 0 0 0 0 0 1
0 0 0 0 0 0 0 0 0 0 0 0 0 0 0 0 0 1 1 1 0 0 0 1 1 1 0 0 0 0 0 0 0 0 0 0 0 0 0 0 0 0 0 0 0 0 0 0 1
0 0 0 0 0 0 0 0 1 1 0 0 0 0 0 0 0 1 1 1 0 0 0 0 1 0 0 0 0 0 0 0 0 0 0 0 0 0 0 0 0 0 0 0 0 0 0 0 0
0 0 0 0 0 0 0 0 1 0 0 0 0 0 0 0 1 1 1 0 0 0 0 0 0 0 0 0 0 0 0 0 0 0 0 0 0 0 0 0 0 0 0 0 0 0 0 0 0
0 0 0 0 0 0 0 0 1 0 0 0 0 1 0 0 0 0 0 0 0 0 0 0 0 0 0 0 0 0 0 0 0 0 0 0 0 0 0 0 0 0 0 0 0 0 0 0 0
0 0 0 0 0 0 0 1 1 1 0 0 1 1 1 1 1 0 0 0 0 0 0 0 0 0 0 0 0 0 0 0 0 0 0 0 0 0 0 0 0 0 0 0 0 0 0 0 0
0 0 0 1 1 0 0 1 1 0 0 1 1 0 1 1 1 0 0 0 0 0 0 0 0 0 0 0 0 0 0 0 0 0 0 0 0 0 0 0 0 0 0 0 0 0 0 0 0
0 0 0 0 0 0 0 0 0 0 0 0 0 0 1 1 1 1 0 0 0 0 0 0 0 0 0 0 0 0 0 0 0 0 0 0 0 0 0 0 0 0 0 0 0 0 0 0 0
0 0 0 0 0 0 0 0 0 0 0 0 0 0 1 1 1 1 0 0 0 0 0 0 0 0 0 0 0 0 0 0 0 0 0 0 0 0 0 0 0 0 0 0 0 0 0 0 0
0 0 0 0 0 0 0 0 0 0 0 0 0 0 1 1 1 1 0 0 0 0 0 0 0 0 0 0 0 0 0 0 0 0 0 0 0 0 0 0 0 0 0 0 0 0 0 0 0
0 0 0 0 0 0 0 0 0 0 0 0 0 0 0 1 1 1 0 0 0 0 0 0 0 0 0 0 0 0 0 0 0 0 0 0 0 0 0 0 0 0 0 0 0 0 0 0 0
0 0 0 0 0 0 0 0 0 0 0 0 0 0 0 0 0 0 0 0 0 0 0 0 0 0 0 0 0 0 0 0 0 0 0 0 0 0 0 0 0 0 0 0 0 0 0 0 0
0 0 0 0 0 0 0 0 0 0 0 0 0 0 0 0 0 0 0 0 0 0 0 0 0 0 0 0 0 0 0 0 0 0 0 0 0 0 0 0 0 0 0 0 0 0 0 0 0
0 0 0 0 0 0 0 0 0 0 0 0 0 0 0 0 0 0 0 0 0 0 0 0 0 0 0 0 0 0 0 0 0 0 0 0 0 0 0 0 0 0 0 0 0 0 0 0 0
0 0 0 0 0 0 0 0 0 0 0 0 0 0 0 0 0 0 0 0 0 0 0 0 0 0 0 0 0 0 0 0 0 0 0 0 0 0 0 0 0 0 0 0 0 0 0 0 0
0 0 0 0 0 0 0 0 0 0 0 0 0 0 0 0 0 0 0 0 0 0 0 0 0 0 0 0 0 0 0 0 0 0 0 0 0 0 0 0 0 0 0 0 0 0 0 0 0
0 0 0 0 0 0 0 0 0 0 0 0 0 0 0 0 0 0 0 0 0 0 0 0 0 0 0 0 0 0 0 0 0 0 0 0 0 0 0 0 0 0 0 0 0 0 0 0 0
0 0 0 0 0 0 0 0 0 0 0 0 0 0 0 0 0 0 0 0 0 0 0 0 0 0 0 0 0 0 0 0 0 0 0 0 0 0 0 0 0 0 0 0 0 0 0 0 0
0 0 0 0 0 0 0 0 0 0 0 0 0 0 0 0 0 0 0 0 0 0 0 0 0 0 0 0 0 0 0 0 0 0 0 0 0 0 0 0 0 0 0 0 0 0 0 0 0
0 0 0 0 0 0 0 0 0 0 0 0 0 0 0 0 0 0 0 0 0 0 0 0 0 0 0 0 0 0 0 0 0 0 0 0 0 0 0 0 0 0 0 0 0 0 0 0 0
0 0 0 0 0 0 0 0 0 0 0 0 0 0 0 0 0 0 0 0 0 0 0 0 0 0 0 0 0 0 0 0 0 0 0 0 0 0 0 0 0 0 0 0 0 0 0 0 0
0 0 0 0 0 0 0 0 0 0 0 0 0 0 0 0 0 0 0 0 0 0 0 0 0 0 0 0 0 0 0 0 0 0 0 0 0 0 0 0 0 0 0 0 0 0 0 0 0
0 0 0 0 0 0 0 0 0 0 0 0 0 0 0 0 0 0 0 0 0 0 0 0 0 0 0 0 0 0 0 0 0 0 0 0 0 0 0 0 0 0 0 0 0 0 0 0 0
Wind_Speed
3 1 2 3 5 4 3 2 2 3 4 5 8 9 8 6 4 5 2 6 8 6 4 7 11 12 12 12 12 12 12 12 11 11 11 10 10 10 10 9 9 9 9 8 8 7 7 7 7
1 1 3 4 4 3 2 1 3 3 5 5 7 7 8 7 5 6 3 6 8 7 5 7 11 12 12 12 12 12 12 11 11 11 10 10 10 9 9 9 9 8 8 8 7 6 6 6 6
0 1 3 3 3 3 3 2 4 4 4 4 5 6 5 4 4 3 5 7 7 7 5 7 12 12 12 12 11 11 11 11 10 10 9 9 9 8 8 8 8 8 7 7 6 6 6 6 6
2 3 4 4 3 1 4 4 4 6 5 5 6 6 4 3 3 5 8 8 9 7 5 8 12 12 12 11 11 11 10 10 10 9 8 8 8 8 8 8 7 7 7 6 6 5 5 6 6
3 4 4 3 2 2 3 4 4 5 4 6 7 7 4 3 7 9 9 9 9 7 5 7 12 12 12 11 11 10 10 9 9 9 8 7 7 7 7 7 6 6 6 5 5 5 5 6 6
4 4 4 2 2 3 2 3 6 8 7 7 7 7 3 3 7 8 8 8 8 7 6 6 11 12 11 10 10 9 8 8 7 7 7 6 6 6 6 6 5 5 5 5 5 5 5 5 6
4 3 3 2 3 3 2 3 5 6 6 4 5 6 3 3 5 7 8 8 7 6 6 4 4 7 9 9 8 8 7 6 5 5 5 4 4 4 4 4 4 4 4 4 4 4 4 5 6
4 4 3 2 3 2 2 3 5 6 5 4 4 7 6 5 5 8 7 7 6 6 5 4 3 3 3 3 6 5 5 4 3 2 2 2 1 2 2 2 3 3 3 3 3 3 4 5 6
4 5 2 1 3 2 4 6 4 5 6 4 3 4 7 8 8 8 7 6 5 5 4 4 4 3 2 2 2 2 2 1 1 1 1 1 1 1 1 0 1 2 2 2 2 3 4 5 6
4 4 2 1 4 5 5 6 5 5 6 5 6 8 9 8 8 8 7 6 6 5 4 3 4 3 2 1 1 1 0 1 1 1 1 1 0 1 0 2 2 2 3 3 3 3 4 4 3
3 3 2 3 4 5 5 5 4 8 5 5 9 10 9 8 6 6 6 6 6 6 5 4 4 3 2 1 1 0 1 1 1 1 1 1 1 1 1 1 2 3 3 3 3 4 3 3 3
4 4 3 3 3 4 5 5 6 5 5 6 9 10 9 8 6 6 6 5 5 5 5 5 4 3 2 2 1 1 0 1 1 1 1 2 1 1 1 1 1 1 1 2 2 2 3 3 4
5 4 4 5 6 7 8 7 7 5 6 8 9 9 8 7 5 4 4 5 5 5 4 4 4 4 3 2 1 2 1 1 2 2 2 3 2 1 1 1 2 2 2 2 2 3 4 4 4
4 6 4 4 5 5 8 6 5 5 8 10 9 8 7 6 6 5 4 4 5 5 4 4 5 4 4 3 2 2 2 2 3 2 2 3 2 2 2 2 2 2 2 2 3 4 4 3 3
5 6 4 2 3 3 7 5 3 7 9 10 8 7 6 5 6 7 7 6 6 6 5 5 5 5 5 4 3 2 2 3 3 3 3 3 3 3 3 3 3 2 2 3 3 4 3 4 4
3 3 1 1 2 2 5 3 3 6 9 8 7 6 5 5 6 7 7 6 6 6 6 5 6 6 5 4 4 3 3 3 3 3 3 4 4 4 3 3 2 2 3 3 3 3 4 3 3
2 2 2 2 2 3 4 4 4 6 9 8 7 6 6 5 5 6 6 7 6 6 7 6 6 6 5 5 4 4 3 3 3 3 3 3 4 4 4 3 2 3 3 3 3 3 3 3 3
3 3 2 2 2 3 4 4 6 7 8 8 7 5 5 5 5 6 6 6 6 6 6 6 5 5 5 4 4 3 4 3 3 3 3 4 3 4 4 3 3 4 4 3 3 3 3 2 2
5 4 2 2 2 3 4 4 6 7 7 7 7 7 6 6 5 5 5 6 6 5 6 6 5 4 4 3 3 2 2 2 2 2 3 4 3 3 4 3 3 3 3 3 3 3 4 3 2
4 4 1 0 1 3 3 3 5 8 9 10 10 9 8 6 4 5 5 5 6 6 6 6 6 5 4 3 2 2 2 1 1 2 3 4 3 3 3 3 3 3 3 4 3 3 2 2 1
3 4 4 4 1 2 3 1 3 4 5 7 8 9 8 9 9 7 6 6 6 7 7 7 6 5 4 4 3 3 3 3 2 3 2 2 3 3 3 4 3 3 3 3 2 2 3 2 1
2 3 5 5 3 2 3 2 5 6 6 9 10 10 10 10 9 8 8 7 7 7 6 7 6 5 4 5 4 4 3 2 1 0 1 2 3 3 3 3 3 3 3 3 2 2 2 3 1
3 4 4 3 3 0 2 2 5 4 7 11 12 12 11 11 10 10 9 8 7 6 7 6 6 5 5 5 5 5 3 2 1 1 1 2 3 3 3 3 3 3 2 2 3 3 3 2 2
4 4 3 3 3 1 4 4 5 6 11 11 12 12 11 11 10 10 8 7 6 5 6 6 6 4 4 5 5 5 5 4 3 2 1 1 1 2 2 3 3 2 2 2 2 3 4 3 3
4 5 3 3 2 4 3 3 8 9 9 12 14 13 12 11 11 10 9 8 7 7 7 6 7 5 4 4 4 4 5 5 4 3 2 2 1 1 1 1 2 2 2 2 3 3 3 3 3
3 6 5 3 3 3 1 3 7 5 6 8 10 11 11 11 11 11 11 10 9 9 8 7 7 6 5 4 4 3 4 3 2 3 3 3 2 1 1 1 2 2 2 3 3 2 2 2 3
4 3 4 4 1 1 3 4 5 2 2 6 9 10 11 12 12 12 11 10 10 9 8 9 8 6 5 5 4 3 4 3 3 3 3 2 2 2 2 2 2 2 2 3 3 2 2 2 2
4 5 3 2 2 0 3 3 3 2 2 5 9 11 11 11 12 12 11 10 9 9 7 7 8 7 6 5 4 3 3 3 3 3 3 3 2 2 2 2 2 2 2 3 3 2 2 3 2
2 2 3 3 3 4 1 6 6 7 6 7 10 12 12 12 12 12 11 10 9 8 8 7 7 6 5 5 4 4 3 3 3 3 3 3 2 2 2 2 2 2 2 2 3 2 2 3 2
4 4 5 4 2 3 3 7 6 5 6 6 8 9 10 11 12 11 11 10 9 9 8 8 8 7 6 5 5 4 4 4 3 3 2 3 3 2 3 3 3 2 2 2 3 2 2 2 2
Wind_Direction
306 346 79 58 53 54 64 23 74 66 63 61 75 82 80 61 82 119 146 135 127 126 116 113 112 108 104 101 98 97 96 94 92 91 89 88 87 85 84 83 83 82 80 79 78 80 83 82 77
333 51 62 56 76 79 64 47 79 96 127 121 81 76 76 70 74 101 119 135 131 128 121 117 113 109 106 103 100 98 98 96 95 93 91 88 85 83 82 83 82 82 82 82 82 83 83 79 72
314 102 81 68 85 133 133 146 124 105 110 103 84 59 67 88 91 109 143 139 128 121 120 124 117 111 107 104 100 99 99 97 97 96 92 90 87 85 85 85 82 82 82 82 83 82 79 76 69
65 50 59 71 77 114 142 154 131 109 74 68 94 72 62 62 104 128 135 132 123 118 120 123 117 113 108 105 102 100 99 99 97 95 92 92 89 86 84 82 83 83 81 81 82 79 75 70 64
68 73 63 61 69 84 112 127 116 97 79 80 94 92 64 37 111 125 132 131 124 120 116 120 116 113 109 108 106 103 101 99 97 94 92 90 88 84 84 84 85 85 82 82 80 74 71 67 60
58 67 81 90 89 89 92 105 98 91 102 101 94 100 87 112 121 132 133 131 127 124 120 120 121 118 114 112 110 108 106 101 97 94 92 90 86 86 84 84 83 82 80 78 78 71 66 65 61
104 88 101 120 106 87 103 101 98 110 108 101 111 100 112 125 137 135 130 126 123 123 125 121 121 121 122 121 118 116 113 108 103 99 97 96 93 94 94 90 88 85 80 77 74 69 67 57 58
126 98 73 83 107 105 120 101 95 103 101 106 104 124 148 160 133 119 118 120 126 128 132 135 127 117 121 124 130 129 124 118 112 101 99 104 90 88 90 96 88 83 76 68 62 61 54 46 54
85 78 85 143 134 134 125 100 73 66 86 65 64 114 135 133 120 115 111 109 122 133 145 147 143 137 141 159 142 127 116 93 67 40 47 52 349 339 336 17 71 57 54 46 39 39 38 43 50
77 105 160 165 142 137 121 115 122 95 81 79 87 94 113 118 123 124 127 132 140 153 164 165 161 161 169 171 108 35 13 2 354 340 334 355 294 267 296 327 5 24 32 27 32 37 32 46 45
87 121 111 81 106 122 118 104 100 116 108 140 138 136 131 125 127 135 146 153 159 163 163 169 172 165 157 142 126 51 0 360 347 338 342 55 61 15 18 360 354 4 20 20 28 35 40 55 68
88 71 87 110 107 108 109 106 91 104 144 151 144 140 135 138 151 158 161 165 156 151 162 172 168 158 153 142 123 96 47 38 30 18 58 81 68 44 28 22 5 17 34 49 41 54 56 64 74
81 82 67 95 97 97 95 99 107 108 125 127 129 130 142 153 158 164 163 155 138 136 145 156 152 147 132 111 97 92 66 55 49 43 45 71 78 62 57 29 35 36 58 73 70 71 69 70 71
113 102 88 86 95 99 104 104 101 131 134 131 137 143 153 160 155 146 145 139 133 131 125 125 131 127 111 102 96 85 75 61 52 47 45 66 78 67 60 49 42 45 65 80 87 85 82 74 71
107 91 61 61 97 114 101 74 119 151 142 141 149 151 152 158 153 155 158 154 144 133 124 120 119 104 101 97 93 81 68 63 54 46 47 59 70 69 64 55 44 32 64 76 76 72 69 72 69
82 83 84 262 139 137 114 147 183 157 148 149 157 159 157 166 165 165 161 153 141 128 118 112 114 103 96 92 88 80 70 66 52 48 48 55 57 65 69 61 48 44 62 73 81 77 75 68 67
63 129 169 213 176 149 128 168 190 168 157 160 167 169 165 164 160 166 160 151 145 135 123 111 110 107 101 91 80 75 72 63 52 50 47 47 53 62 72 63 54 61 66 65 86 74 87 87 81
175 166 177 192 205 144 143 170 172 172 166 168 170 174 173 171 172 169 159 152 146 135 126 124 116 113 107 90 75 59 51 43 41 46 49 51 51 63 71 68 56 64 69 58 72 80 70 82 88
155 147 165 206 191 146 161 175 187 179 176 178 181 185 191 188 188 167 155 145 138 133 134 135 131 129 118 103 98 86 60 34 32 34 46 51 54 60 70 71 59 65 76 77 84 91 76 60 74
137 131 152 137 170 143 162 194 201 186 192 190 188 192 194 193 189 174 155 152 151 153 150 144 147 144 134 132 134 132 127 99 56 19 31 39 50 52 72 77 73 72 81 71 68 87 91 59 59
152 165 174 167 127 60 110 297 231 216 199 200 197 194 194 191 186 179 167 167 159 157 160 158 160 148 139 131 109 84 62 41 27 22 19 19 48 59 75 82 84 76 83 87 77 95 113 116 26
180 188 158 151 130 220 173 231 248 213 205 205 204 196 197 193 185 179 172 171 168 170 163 156 156 150 143 132 126 128 129 141 195 202 23 26 42 57 74 83 85 82 81 86 85 89 99 115 96
173 163 150 157 149 167 205 191 272 192 214 215 207 198 194 189 185 181 177 176 172 168 160 158 152 152 148 138 137 133 135 155 144 98 72 46 32 46 70 80 81 83 84 88 86 86 84 96 112
126 92 68 58 76 272 217 184 263 209 212 209 205 199 193 187 185 182 177 166 161 156 152 152 149 156 152 143 141 143 146 145 133 128 115 59 31 26 50 77 78 86 88 93 94 94 92 93 95
92 90 51 13 2 261 214 185 250 230 210 200 195 195 190 182 179 179 175 169 165 159 158 158 153 160 162 151 153 154 155 153 155 162 157 137 91 33 18 67 90 95 104 105 99 89 82 88 94
173 140 153 183 222 279 307 231 262 254 205 189 186 184 179 179 180 181 181 176 171 169 164 161 160 164 166 157 157 152 150 148 156 160 158 161 172 190 174 113 105 108 109 106 104 96 93 89 95
152 190 181 150 193 300 297 289 315 13 126 165 172 174 180 182 182 184 183 179 175 172 170 168 165 164 169 162 153 152 151 149 152 154 150 157 175 175 151 135 110 100 103 105 102 92 94 94 90
165 161 110 124 136 307 304 289 258 250 200 180 180 186 189 183 182 183 183 182 178 174 171 166 163 165 165 160 162 160 159 156 149 140 150 162 171 153 133 126 114 92 85 94 96 90 100 99 82
169 154 137 133 154 154 232 273 237 212 206 194 194 192 189 185 182 180 181 180 174 170 167 165 167 162 162 165 162 158 161 154 141 144 162 164 151 142 142 141 124 106 90 92 98 100 108 105 87
180 182 151 148 199 162 172 265 270 217 208 196 194 195 189 184 181 178 176 172 171 173 173 171 171 169 173 171 161 166 163 151 148 155 162 152 144 142 145 141 131 128 117 109 109 107 108 116 111